SCP
0 0 0 0 0 0 0 0 0 0 0 0 0 0 0 0 0 0 0 0 0 0 0 0 0 0 0 1 1 1 1 1 1 1 1 1 0 0 0 0 0 0 0 0 0 0 0 0 0
0 0 0 0 0 0 0 0 0 0 0 0 0 0 0 0 0 0 0 0 0 0 0 0 0 0 0 1 1 1 1 1 1 1 1 1 1 1 0 0 0 0 0 0 0 0 0 0 0
0 0 0 0 0 0 0 0 0 0 0 0 0 0 0 0 0 0 0 0 0 0 0 0 0 0 1 1 1 1 1 1 1 1 1 1 1 1 1 0 0 0 0 0 0 0 0 0 0
0 0 0 0 0 0 0 0 0 0 0 0 0 0 0 0 0 0 0 0 0 0 0 0 0 0 1 1 1 1 1 1 1 1 1 1 1 1 1 1 0 0 0 0 0 0 0 0 0
0 0 0 0 0 0 0 0 0 0 0 0 0 0 0 0 0 0 0 0 0 0 0 0 0 0 1 1 1 1 1 1 1 1 1 1 1 1 1 1 1 0 0 0 0 0 0 0 0
0 0 0 0 0 0 0 0 0 0 0 0 0 0 0 0 0 0 0 0 0 0 0 0 0 0 1 1 1 1 1 1 1 1 1 1 1 1 1 1 1 1 0 0 0 0 0 0 0
0 0 0 0 0 0 0 0 0 0 0 0 0 0 0 0 0 0 0 0 0 0 0 0 0 0 0 1 1 1 1 1 1 1 1 1 1 1 1 1 1 1 0 0 0 0 0 0 0
0 0 0 0 0 0 0 0 0 0 0 0 0 0 1 1 1 1 1 0 0 0 0 0 0 0 0 0 1 1 1 1 1 1 1 1 1 1 1 1 1 1 0 0 0 0 0 0 0
0 0 0 0 0 0 0 0 0 0 0 0 1 1 1 1 1 1 1 1 1 0 0 0 0 0 0 0 1 1 1 1 1 1 1 1 1 0 0 1 1 1 0 0 0 0 0 0 0
0 0 0 0 0 0 0 0 0 0 0 0 1 1 1 1 1 1 1 1 1 1 1 0 1 0 0 1 1 1 1 1 1 1 1 1 1 1 1 1 1 1 1 0 0 0 0 0 0
0 0 0 0 0 0 0 0 0 0 0 0 1 1 1 1 1 1 1 1 1 1 1 1 1 1 1 1 1 1 1 1 1 1 1 1 1 1 1 1 1 1 1 1 1 0 0 0 0
0 0 0 0 0 0 0 0 0 0 0 0 1 1 1 1 1 1 1 1 1 1 1 1 1 1 1 1 1 1 1 1 1 1 1 1 1 1 1 1 1 1 1 1 1 1 0 0 0
0 0 0 0 0 0 0 0 0 0 0 1 1 1 1 1 1 1 1 1 1 1 1 1 1 1 1 1 1 1 1 1 1 1 1 1 1 1 1 1 1 1 1 1 1 1 1 1 0
0 0 0 0 0 0 0 0 0 0 0 1 1 1 1 1 1 1 1 1 1 1 1 1 1 1 1 1 1 1 1 1 1 1 1 1 1 1 1 1 1 1 1 1 1 1 1 1 1
0 0 0 0 0 0 0 0 0 0 0 1 1 1 1 1 1 1 1 1 1 1 1 1 1 1 1 1 1 1 1 1 1 1 1 1 1 1 1 1 1 1 1 1 1 1 1 1 1
-0 0 0 0 0 0 0 0 0 0 0 0 1 1 1 1 1 1 1 1 1 1 1 1 1 1 1 1 1 1 1 1 1 1 1 1 1 1 1 1 1 1 1 1 1 1 1 1 1
-0 0 0 0 0 0 0 0 0 0 0 0 1 1 1 1 1 0 0 0 0 1 1 1 1 1 1 1 1 1 1 1 1 1 1 1 1 1 1 1 1 1 1 1 1 1 1 1 1
0 0 0 0 0 0 0 0 0 0 0 0 1 1 1 1 0 0 0 0 0 0 0 1 1 1 1 1 1 1 1 1 1 1 1 1 1 1 1 1 1 1 1 1 1 1 1 1 1
0 0 0 0 0 0 0 0 0 0 0 0 0 1 1 1 0 0 0 0 0 0 0 0 1 1 1 1 1 1 1 1 1 1 1 1 1 1 1 1 1 1 1 1 1 1 1 1 1
0 0 0 0 0 0 0 0 0 0 0 0 0 0 0 0 0 0 0 0 0 0 0 0 0 1 1 1 1 1 1 1 1 1 1 1 1 1 1 1 1 1 1 1 1 1 1 1 1
0 0 0 0 0 0 0 0 0 0 0 0 0 0 0 0 0 0 0 0 0 0 0 0 0 0 1 1 1 1 1 1 1 1 1 1 1 1 1 1 1 1 1 1 1 1 1 1 1
0 0 0 0 0 0 0 0 0 0 0 0 0 0 0 0 0 0 0 0 0 0 0 0 0 0 0 1 1 1 1 1 1 1 1 0 0 0 0 0 1 1 1 1 1 1 1 1 1
0 0 0 0 0 0 0 0 0 0 0 0 0 0 0 0 0 0 0 0 0 0 0 0 0 0 0 1 1 1 1 1 1 1 0 0 0 0 0 0 0 0 0 0 0 0 0 0 0
0 0 0 0 0 0 0 0 0 0 0 0 0 0 0 0 0 0 0 0 0 0 0 0 0 0 0 0 1 1 1 1 1 0 0 0 0 0 0 0 0 0 0 0 0 0 0 0 0
0 0 0 0 0 0 0 0 0 0 0 0 0 0 0 0 0 0 0 0 0 0 0 0 0 0 0 0 0 0 0 1 0 0 0 0 0 0 0 0 0 0 0 0 0 0 0 0 0
0 0 0 0 0 0 0 0 0 0 0 0 0 0 0 0 0 0 0 0 0 0 0 0 0 0 0 0 0 0 0 0 0 0 0 0 0 0 0 0 0 0 0 0 0 0 0 0 0
0 0 0 0 0 0 0 0 0 0 0 0 0 0 0 0 0 0 0 0 0 0 0 0 0 0 0 0 0 0 0 0 0 0 0 0 0 0 0 0 0 0 0 0 0 0 0 0 0
0 0 0 0 0 0 0 0 0 0 0 0 0 0 0 0 0 0 0 0 0 0 0 0 0 0 0 0 0 0 0 0 0 0 0 0 0 0 0 0 0 0 0 0 0 0 0 0 0
0 0 0 0 0 0 0 0 0 0 0 0 0 0 0 0 0 0 0 0 0 0 0 0 0 0 0 0 0 0 0 0 0 0 0 0 0 0 0 0 0 0 0 0 0 0 0 0 0
0 0 0 0 0 0 0 0 0 0 0 0 0 0 0 0 0 0 0 0 0 0 0 0 0 0 0 0 0 0 0 0 0 0 0 0 0 0 0 0 0 0 0 0 0 0 0 0 0
Wind_Speed
9 8 7 6 8 8 8 4 2 2 1 3 3 3 3 4 6 7 6 10 13 16 18 17 14 13 14 14 15 15 16 16 16 15 15 14 13 12 12 11 11 10 10 10 10 10 11 11 12
6 6 7 7 9 9 7 4 4 1 3 3 0 1 1 4 6 6 8 12 15 16 16 16 15 13 14 14 14 15 16 17 16 15 15 14 13 12 12 12 11 10 10 10 10 10 11 11 11
7 8 7 7 10 8 5 5 2 2 1 1 1 2 2 5 5 5 9 15 15 15 14 16 16 14 14 14 14 15 16 16 16 15 15 14 13 12 11 12 11 11 10 10 10 10 10 10 11
7 7 7 9 11 6 2 1 2 2 1 2 3 4 5 6 4 7 14 15 16 15 14 17 14 14 13 14 14 14 15 15 15 15 14 13 13 12 11 11 11 11 10 10 10 10 10 10 10
8 8 10 11 9 5 3 3 3 3 2 3 3 5 7 6 7 12 15 15 15 15 14 17 13 12 13 13 13 13 14 14 13 13 13 12 12 11 11 11 11 10 10 10 10 10 9 9 9
7 7 10 10 9 5 3 2 4 4 4 4 5 6 7 7 9 12 14 14 14 14 14 15 14 13 12 12 12 12 12 12 12 12 11 11 10 10 10 10 10 10 9 10 10 9 9 8 8
8 8 9 7 6 6 2 1 3 4 4 4 3 6 8 9 10 12 13 12 13 13 14 14 15 13 12 10 10 10 10 10 10 11 10 10 10 10 10 10 9 9 9 9 9 9 9 8 7
6 6 8 7 6 5 4 2 1 1 4 4 2 5 8 9 10 11 12 11 11 11 11 13 13 13 13 13 11 10 9 9 10 11 11 11 11 10 10 10 9 9 10 9 9 9 8 8 7
7 8 7 6 4 4 4 4 4 1 4 5 4 6 9 12 12 12 11 10 10 9 9 10 11 11 11 11 12 12 11 9 10 11 11 11 11 11 11 10 10 10 10 10 9 9 8 8 8
8 8 4 2 1 2 4 3 3 5 8 8 9 10 11 12 12 12 11 11 10 9 8 7 8 9 9 7 9 8 9 9 9 8 10 9 6 5 7 10 10 10 9 9 10 9 9 10 9
7 4 3 3 1 1 2 3 2 4 6 7 8 10 10 10 9 9 9 8 9 8 6 5 6 6 6 5 5 5 4 5 7 7 7 6 6 5 5 5 8 9 10 9 9 10 9 9 6
5 3 2 1 1 2 1 3 3 5 6 7 7 9 9 8 7 6 7 7 7 6 5 4 4 4 4 4 4 4 4 4 5 6 7 5 4 5 5 4 5 6 5 6 6 6 7 7 6
7 4 3 3 3 2 2 3 5 7 7 7 8 8 8 7 6 6 5 6 6 5 4 3 3 3 3 3 3 3 3 3 3 3 5 4 4 5 4 4 4 6 5 6 6 6 6 6 7
4 3 3 3 4 5 6 7 5 6 6 7 8 8 8 7 6 6 5 4 4 3 2 2 2 3 2 2 2 2 2 2 2 2 3 4 3 3 4 5 5 5 5 5 5 6 5 5 5
4 6 7 5 6 6 7 8 6 5 6 8 8 9 8 8 7 7 6 5 4 3 2 1 1 2 2 2 2 1 1 1 1 1 2 3 3 3 4 4 4 4 5 5 5 5 5 5 5
8 10 9 7 5 6 10 9 8 5 7 7 7 8 8 8 8 8 7 6 5 4 3 2 1 1 1 1 1 1 0 0 1 1 2 3 4 4 4 4 4 4 4 4 4 5 5 5 4
10 9 8 10 5 5 7 7 8 5 7 7 7 6 7 7 8 8 7 7 6 6 4 4 3 3 1 1 0 0 0 1 1 1 1 2 3 4 4 4 3 4 4 4 5 4 5 5 5
8 7 7 7 5 5 6 8 8 6 6 7 7 6 6 7 7 7 7 8 7 7 6 5 3 3 1 1 1 1 1 1 1 1 1 1 2 2 3 4 4 4 4 4 4 4 4 4 4
2 4 6 6 4 4 6 9 8 7 7 7 7 6 7 7 7 7 8 8 7 7 7 6 4 3 1 1 0 0 0 1 0 0 1 1 2 2 3 4 3 4 4 4 5 4 5 5 4
6 7 7 7 5 3 7 8 7 6 6 6 6 6 6 7 7 8 8 8 8 8 7 6 5 4 3 2 1 1 1 1 1 1 1 1 2 2 2 3 3 3 3 4 5 5 4 4 5
7 6 6 7 8 6 7 9 9 7 6 6 6 6 6 6 6 7 7 8 8 8 8 6 6 5 4 3 1 1 0 0 0 1 1 2 2 2 2 2 3 3 3 3 4 5 6 5 5
6 4 5 7 9 7 8 6 10 10 9 8 7 6 6 6 6 7 7 8 8 8 7 6 6 6 5 4 3 1 1 1 1 2 2 2 2 2 2 2 2 2 2 3 4 4 4 5 5
2 3 6 7 7 5 7 8 7 11 10 9 8 7 6 6 6 6 7 7 7 7 6 6 6 6 6 5 4 3 3 2 2 2 2 2 2 3 3 2 2 1 1 2 2 2 3 3 4
5 6 6 7 8 9 5 7 4 7 7 9 10 9 7 6 7 7 7 7 7 7 7 6 7 7 7 7 6 5 5 4 4 4 3 3 3 4 5 4 3 2 1 0 1 1 1 1 3
8 7 6 8 8 4 4 6 1 5 3 6 10 10 9 7 7 6 7 7 7 7 7 7 7 7 7 7 7 6 6 6 6 5 4 4 4 4 6 5 4 3 3 3 2 1 2 1 1
6 8 7 6 5 2 6 5 6 6 4 6 9 11 10 8 7 7 6 6 7 7 7 7 7 7 7 7 7 7 7 5 5 6 6 6 5 5 6 5 5 4 4 4 3 2 2 1 0
5 6 6 8 8 7 3 3 7 6 6 8 10 10 10 8 8 7 6 6 6 7 7 7 7 7 7 7 7 7 7 7 7 6 6 6 5 5 6 6 6 5 5 5 4 3 3 3 2
4 2 4 7 7 7 4 5 3 11 10 10 11 10 10 9 8 7 6 6 6 6 6 6 7 7 6 6 6 6 7 7 7 7 8 7 7 7 7 7 7 7 6 6 5 5 5 5 4
4 5 5 6 6 7 5 0 5 3 9 11 11 11 11 10 8 7 6 5 5 5 6 6 6 6 6 6 6 7 7 7 7 7 7 7 7 7 7 7 7 8 7 7 7 7 7 7 7
5 4 5 6 6 7 8 1 6 3 6 10 11 12 11 10 9 8 7 6 5 6 6 6 6 6 6 6 6 7 7 7 8 8 7 7 7 7 8 7 8 8 8 8 9 9 9 9 9
Wind_Direction
226 219 223 232 233 230 226 165 170 167 116 16 342 309 332 11 8 45 91 143 139 142 141 148 146 144 143 142 141 142 144 145 147 147 148 147 146 145 143 143 141 139 137 134 133 132 132 132 133
210 201 220 231 241 221 196 172 178 61 13 332 352 188 170 72 48 78 120 136 142 141 146 150 143 144 141 140 139 140 143 145 146 147 150 151 150 149 147 146 144 142 140 140 139 137 136 136 137
200 220 231 226 234 236 168 144 140 41 328 273 130 119 77 58 70 99 125 141 142 141 146 140 147 145 143 142 141 142 145 146 148 149 152 153 152 150 149 150 149 146 144 144 143 142 141 140 142
197 204 225 235 222 219 246 137 346 287 195 167 168 124 93 47 54 110 133 143 142 144 147 141 152 148 145 144 144 145 146 147 150 151 152 153 153 152 153 154 153 151 148 148 147 146 146 148 150
225 218 214 221 219 202 223 283 291 265 183 160 175 134 107 69 89 120 138 146 147 147 147 145 152 149 149 150 149 149 148 149 150 151 151 153 152 154 156 156 156 155 155 154 153 152 152 154 156
208 222 220 211 196 193 197 248 250 234 179 163 168 144 103 103 118 134 143 149 148 147 146 142 151 154 155 155 153 152 151 150 151 152 152 152 152 155 157 158 159 160 160 159 159 158 157 157 159
223 222 226 209 186 179 152 207 237 210 167 144 163 139 118 117 123 138 142 146 147 148 146 150 159 162 163 160 156 152 149 150 151 151 152 154 156 160 164 163 164 165 165 164 164 164 164 163 165
245 231 213 201 192 147 119 150 161 221 109 95 175 152 129 126 135 138 138 142 145 150 153 156 162 163 169 168 163 161 157 155 154 157 161 162 164 171 173 176 169 173 173 173 172 172 171 169 172
236 231 198 178 177 133 126 137 106 110 125 112 88 74 99 133 143 142 139 142 144 148 155 163 164 168 176 170 159 170 169 165 167 170 171 180 188 183 182 187 164 181 182 181 180 180 177 179 181
224 223 163 115 138 116 117 111 110 159 137 123 110 98 116 139 148 149 148 150 149 153 161 165 167 170 179 169 160 179 182 173 195 183 182 199 196 199 199 145 173 189 190 189 187 185 188 212 197
219 228 135 178 202 291 140 110 131 165 120 108 113 117 128 140 146 148 144 144 144 149 154 161 169 179 180 170 172 182 184 176 197 192 194 204 195 200 208 175 181 194 197 200 183 195 209 213 217
209 206 230 215 159 229 162 125 101 70 75 80 99 119 131 137 136 134 133 129 130 135 145 152 160 172 191 184 181 189 191 192 200 191 206 200 209 208 206 206 198 195 200 203 203 211 210 222 221
212 184 201 228 223 212 174 131 99 90 86 96 105 114 120 121 114 99 96 107 114 121 130 139 148 157 179 190 207 198 205 204 207 201 207 214 219 225 217 217 211 216 204 198 214 218 208 218 222
184 195 199 195 159 164 160 131 125 101 110 114 113 113 110 107 103 99 92 91 98 100 105 116 155 148 177 191 209 209 215 205 215 215 218 224 236 233 229 225 218 223 218 212 213 218 212 217 228
203 203 173 157 163 159 164 139 118 117 130 123 113 102 94 85 82 77 71 63 60 69 71 72 127 131 176 197 204 203 215 222 246 243 245 248 250 247 246 238 227 225 220 212 217 214 215 215 218
203 208 174 138 161 170 216 151 120 140 146 130 116 108 101 84 75 66 59 56 49 50 59 51 29 85 136 173 193 190 216 256 283 281 262 261 263 252 246 244 235 227 228 219 216 215 214 214 216
200 201 163 141 150 177 220 134 128 151 149 133 122 114 108 93 73 63 59 58 50 46 49 51 44 41 41 74 101 48 27 353 316 298 293 282 275 265 256 253 245 235 231 225 228 213 221 216 210
181 178 167 153 137 183 172 130 134 149 153 141 132 121 111 95 75 64 60 59 56 50 48 45 47 42 38 85 110 76 35 342 312 294 308 303 285 271 250 242 234 237 232 225 226 224 223 222 208
208 197 162 128 131 181 149 138 140 150 158 148 141 131 119 98 81 70 62 58 55 49 44 36 29 26 12 347 334 72 256 273 275 303 327 291 279 265 256 249 227 230 229 229 224 215 218 218 198
208 196 156 133 135 173 147 142 143 155 159 154 148 140 124 110 91 71 60 55 51 44 35 32 25 19 5 7 350 324 317 314 347 1 29 327 294 284 261 270 250 236 234 227 225 213 221 218 199
205 210 168 148 149 169 172 167 165 161 159 152 149 134 116 103 89 74 59 51 46 40 31 26 24 21 14 5 22 75 118 254 71 33 23 6 346 332 321 297 273 250 238 234 233 225 219 217 208
186 187 188 175 198 177 215 219 168 170 173 169 157 140 124 106 87 73 61 52 43 37 34 32 27 30 25 19 31 39 30 359 5 6 25 18 16 359 334 308 283 258 247 251 247 230 234 224 213
95 158 191 204 229 221 208 256 155 170 187 182 168 152 129 105 89 77 65 59 51 42 39 38 35 36 30 30 33 24 39 38 41 46 48 32 37 26 17 2 337 287 251 245 246 243 238 233 222
150 164 178 216 229 234 212 253 201 172 195 174 162 148 128 110 95 83 73 66 56 47 42 40 41 40 32 30 35 36 42 45 45 42 42 44 40 33 31 24 19 24 19 338 238 234 226 234 222
205 215 215 214 220 222 148 246 55 102 115 157 155 145 132 119 102 86 73 64 55 46 40 39 42 40 35 34 38 43 43 48 47 35 37 40 42 35 25 25 24 31 31 22 12 57 46 21 263
216 251 267 275 270 213 181 239 93 101 102 123 137 138 133 122 107 91 78 69 62 52 45 41 42 43 40 41 41 45 45 46 46 38 36 39 37 36 29 30 32 34 39 41 33 46 51 44 25
222 243 305 283 274 270 228 162 137 142 140 138 137 139 137 127 114 102 87 75 66 58 50 46 47 48 45 48 52 53 52 51 51 47 43 42 36 39 37 38 43 44 44 41 41 48 46 44 51
304 283 250 261 271 271 246 231 189 171 175 164 160 155 142 130 121 109 94 84 75 68 64 58 55 53 48 52 57 62 59 57 54 50 49 48 43 40 39 40 45 48 51 50 51 60 55 58 56
200 216 257 273 288 284 279 354 62 139 170 172 168 158 145 138 131 121 109 95 87 80 74 70 66 61 54 57 65 66 62 58 58 54 51 50 48 45 46 45 48 50 53 55 60 64 65 68 65
277 274 255 266 265 267 286 31 87 108 149 161 154 146 139 135 132 127 118 106 95 84 77 73 70 65 58 63 67 65 64 62 60 57 53 54 53 52 53 53 56 58 57 57 60 63 63 65 65